User: anonymous   Login
Location: Grand Rapids
(42.9630°N, 85.6680°W)
Time: 02:51:20
(UTC-04:00)
Language:

Explorer 11/Cluster Stage 4 - Orbit

View from above orbital plane
View from above orbital plane
View from above satellite
View from above satellite

Ground track
Ground track

The orbit data is extracted from the following two-line orbital elements,

1 00107U 61013A   24150.78690724  .00001912  00000-0  22872-3 0  9991
2 00107  28.7881 292.2338 0521498  10.2703 350.8078 14.15265603170085
Epoch (UTC): 29 May 2024 18:53:08
Eccentricity: 0.0521498
inclination: 28.7881°
perigee height: 465 km
apogee height: 1218 km
right ascension of ascending node: 292.2338°
argument of perigee: 10.2703°
revolutions per day: 14.15265603
mean anomaly at epoch: 350.8078°
orbit number at epoch: 17008

The dashed part of the orbit path shows where the satellite is in the earth's shadow,  

DLR